"2022-07-02 00:01:00",3006405,2.000667,157.4666,1.147112,0.06454629,2.17,0,0.8253334,152.8023,4.322694,0.06195339,0.92,0,-999,0,11.49,88.1,11.47,11.61,0.2,0,0,11.36,13.27,0.2,102.2167,3.318,3.319,3.318,100,0,0,0,167.7,158.6,158.6
"2022-07-02 00:02:00",3006406,2.091333,160.2001,1.37611,0.09017514,2.28,0,0.8280001,168.1826,6.764688,0.08239741,0.92,0,-999,0,11.47,88.1,11.43,11.58,0.2,0,0,11.36,13.26,0.2,102.2138,3.318,3.318,3.317,100,0,0,0,167.7,158.6,158.6
"2022-07-02 00:03:00",3006407,2.209333,160.8665,1.627495,0.1000977,2.46,0,0.8373333,168.8665,2.917622,0.08659996,0.97,0,-999,0,11.44,88.1,11.41,11.54,0.2,0,0,11.34,13.27,0.2,102.215,3.319,3.319,3.317,100,0,0,0,167.7,158.6,158.6
"2022-07-02 00:04:00",3006408,2.15,158.6667,1.850006,0.05830955,2.24,0,0.808,162.7289,5.089162,0.07643733,0.93,0,-999,0,11.4,88.1,11.39,11.52,0.2,0,0,11.33,13.27,0.2,102.2193,3.316,3.32,3.316,100,0,0,0,167.7,158.6,158.6
"2022-07-02 00:05:00",3006409,2.152667,155.0005,1.999806,0.1366488,2.36,0,0.894,152.8667,3.137851,0.06354,0.99,0,-999,0,11.37,88.1,11.36,11.46,0.2,0,0,11.33,13.27,0.2,102.2229,3.317,3.318,3.316,100,0,0,0,167.7,158.6,158.6
"2022-07-02 00:06:00",3006410,2.404,154.5334,1.086926,0.1438425,2.65,0,0.874,150.7316,4.624155,0.06008882,1,0,-999,0,11.34,88.1,11.34,11.45,0.2,0,0,11.31,13.27,0.2,102.2161,3.318,3.319,3.317,100,0,0,0,167.7,158.6,158.6
"2022-07-02 00:07:00",3006411,2.552667,152.2,1.423723,0.08782306,2.7,0,0.9833334,146.7303,3.602707,0.08451167,1.22,0,-999,0,11.31,88.2,11.32,11.43,0.2,0,0,11.31,13.27,0.2,102.2163,3.318,3.319,3.317,100,0,0,0,167.7,158.6,158.6
"2022-07-02 00:08:00",3006412,2.557333,150.5999,1.704872,0.1077322,2.76,0,0.9993333,147.9314,5.969365,0.1157277,1.2,0,-999,0,11.3,88.3,11.35,11.43,0.2,0,0,11.31,13.27,0.2,102.2202,3.317,3.319,3.317,100,0,0,0,167.7,158.6,158.6
"2022-07-02 00:09:00",3006413,2.496,149.3997,1.959445,0.08731549,2.7,0,0.9846666,139.8694,5.80522,0.1281596,1.28,0,-999,0,11.33,88.5,11.4,11.47,0.2,0,0,11.29,13.27,0.2,102.2167,3.317,3.318,3.316,100,0,0,0,167.7,158.6,158.6
"2022-07-02 00:10:00",3006414,2.486667,150.8664,2.848579,0.1026104,2.71,0,1.07,139.8678,5.300299,0.12,1.31,0,-999,0,11.39,88.7,11.49,11.55,0.2,0,0,11.29,13.27,0.2,102.2179,3.316,3.318,3.316,100,0,0,0,167.7,158.6,158.6
"2022-07-02 00:11:00",3006415,2.352,150.8001,1.720476,0.06441534,2.45,0,0.9486666,143.5248,6.603897,0.1084353,1.15,0,-999,0,11.41,88.7,11.51,11.6,0.2,0,0,11.29,13.27,0.2,102.2177,3.319,3.32,3.317,100,0,0,0,167.7,158.6,158.6
"2022-07-02 00:12:00",3006416,2.291333,150.9996,2.449275,0.08476374,2.44,0,0.9533333,143.4638,4.571715,0.1841256,1.3,0,-999,0,11.44,88.8,11.52,11.61,0.2,0,0,11.27,13.27,0.2,102.2156,3.319,3.319,3.317,100,0,0,0,167.7,158.6,158.6
"2022-07-02 00:13:00",3006417,2.334,151.6665,1.577652,0.1035889,2.54,0,0.9293334,146.1996,4.002826,0.119525,1.1,0,-999,0,11.43,88.7,11.5,11.6,0.2,0,0,11.27,13.26,0.2,102.2182,3.318,3.319,3.318,100,0,0,0,167.7,158.6,158.6
"2022-07-02 00:14:00",3006418,2.296,152.1334,1.499658,0.03261898,2.34,0,0.9533334,146.3163,6.478208,0.1580576,1.22,0,-999,0,11.41,88.6,11.48,11.58,0.2,0,0,11.27,13.27,0.2,102.2201,3.318,3.318,3.316,100,0,0,0,167.7,158.6,158.6
"2022-07-02 00:15:00",3006419,2.378667,151.0668,1.289307,0.06955735,2.53,0,0.8873335,145.5323,6.59933,0.1660308,1.12,0,-999,0,11.4,88.6,11.43,11.55,0.2,0,0,11.26,13.26,0.2,102.2156,3.318,3.319,3.317,100,0,0,0,167.7,158.6,158.6
"2022-07-02 00:16:00",3006420,2.338667,154.8665,1.995444,0.07855926,2.48,0,0.8053332,147.8044,6.162234,0.1614875,1.15,0,-999,0,11.38,88.5,11.42,11.54,0.2,0,0,11.25,13.27,0.2,102.2176,3.317,3.318,3.316,100,0,0,0,167.7,158.6,158.6
"2022-07-02 00:17:00",3006421,2.304667,157.9996,2.337838,0.1303261,2.56,0,0.6226667,159.0138,10.24372,0.1261463,0.79,0,-999,0,11.38,88.6,11.42,11.54,0.2,0,0,11.24,13.27,0.2,102.2217,3.319,3.319,3.316,100,0,0,0,167.7,158.6,158.6
"2022-07-02 00:18:00",3006422,2.148667,159.2,1.326866,0.06550999,2.28,0,0.698,156.1345,4.744106,0.1147868,0.88,0,-999,0,11.37,88.5,11.41,11.53,0.2,0,0,11.24,13.26,0.2,102.2133,3.318,3.319,3.316,100,0,0,0,167.7,158.6,158.6
"2022-07-02 00:19:00",3006423,2.27,158.4667,1.454599,0.1415156,2.5,0,0.804,151.7327,5.684149,0.1230068,1,0,-999,0,11.36,88.5,11.38,11.5,0.2,0,0,11.22,13.27,0.2,102.2112,3.316,3.318,3.316,100,0,0,0,167.7,158.6,158.6
"2022-07-02 00:20:00",3006424,2.304,158.5334,1.258111,0.09769338,2.52,0,0.886,149.3281,5.129838,0.0941488,1.05,0,-999,0,11.34,88.4,11.36,11.46,0.2,0,0,11.22,13.26,0.2,102.2128,3.317,3.318,3.316,100,0,0,0,167.7,158.6,158.6
"2022-07-02 00:21:00",3006425,2.412667,159.8667,1.309866,0.06617822,2.52,0,0.8700001,153.8008,3.917775,0.09535896,1.06,0,-999,0,11.3,88.3,11.33,11.43,0.2,0,0,11.22,13.26,0.2,102.2146,3.316,3.317,3.316,100,0,0,0,167.7,158.6,158.6
"2022-07-02 00:22:00",3006426,2.291333,160.0667,1.806144,0.1133647,2.53,0,0.6866666,158.5258,6.487274,0.1137053,0.87,0,-999,0,11.29,88.3,11.28,11.39,0.2,0,0,11.21,13.27,0.2,102.2208,3.318,3.319,3.317,100,0,0,0,167.7,158.6,158.6
"2022-07-02 00:23:00",3006427,2.46,161.5333,1.087376,0.1367236,2.72,0,0.6753333,165.1457,6.274709,0.09555919,0.82,0,-999,0,11.24,88.2,11.22,11.35,0.2,0,0,11.2,13.27,0.2,102.2129,3.316,3.319,3.316,100,0,0,0,167.7,158.6,158.6
"2022-07-02 00:24:00",3006428,2.753334,161.4,1.083137,0.1065624,3.04,0,0.6926666,166.6655,5.800242,0.06318931,0.8,0,-999,0,11.19,88,11.14,11.28,0.2,0,0,11.19,13.27,0.2,102.2113,3.316,3.316,3.316,100,0,0,0,167.7,158.6,158.6
"2022-07-02 00:25:00",3006429,2.884,159.2666,1.181407,0.09039175,3.02,0,0.946,158.2693,5.11518,0.1397521,1.24,0,-999,0,11.14,88,11.1,11.23,0.2,0,0,11.18,13.27,0.2,102.2114,3.316,3.316,3.315,100,0,0,0,167.7,158.6,158.6
"2022-07-02 00:26:00",3006430,2.948,160.1333,1.087376,0.06284371,3.07,0,0.892,158.3368,5.039146,0.1294192,1.26,0,-999,0,11.11,88.1,11.09,11.21,0.2,0,0,11.18,13.26,0.2,102.2139,3.316,3.317,3.315,100,0,0,0,167.7,158.6,158.6
"2022-07-02 00:27:00",3006431,3.020667,158.2,0.3998317,0.06126076,3.12,0,1.001333,155.5395,5.375376,0.0886842,1.14,0,-999,0,11.11,88.4,11.12,11.23,0.2,0,0,11.18,13.27,0.2,102.2206,3.318,3.318,3.316,100,0,0,0,167.7,158.6,158.6
"2022-07-02 00:28:00",3006432,3.089333,160.2,1.107616,0.0910287,3.25,0,0.98,157.5963,4.54117,0.1822453,1.46,0,-999,0,11.12,88.5,11.12,11.24,0.2,0,0,11.16,13.27,0.2,102.2265,3.317,3.318,3.316,100,0,0,0,167.7,158.6,158.6
"2022-07-02 00:29:00",3006433,3.015333,161.5333,0.884397,0.1318012,3.2,0,0.878,165.3452,8.56551,0.1898842,1.24,0,-999,0,11.11,88.6,11.17,11.25,0.2,0,0,11.15,13.26,0.2,102.2253,3.316,3.317,3.316,100,0,0,0,167.7,158.6,158.6
"2022-07-02 00:30:00",3006434,3.065333,161.1333,0.805778,0.07356327,3.17,0,0.8526667,159.1461,10.16274,0.1393062,1.13,0,-999,0,11.11,88.7,11.19,11.27,0.2,0,0,11.14,13.27,0.2,102.2268,3.316,3.316,3.316,100,0,0,0,167.7,158.5,158.6
"2022-07-02 00:31:00",3006435,3.228,159.8667,1.024353,0.1325745,3.45,0,1.032667,150.4685,6.423268,0.127094,1.22,0,-999,0,11.11,88.8,11.18,11.26,0.2,0,0,11.13,13.27,0.2,102.2218,3.318,3.318,3.315,100,0,0,0,167.7,158.6,158.6
"2022-07-02 00:32:00",3006436,3.23,160.2,1.166234,0.04647576,3.32,0,1.283333,150.0018,3.793155,0.13325,1.52,0,-999,0,11.1,88.9,11.17,11.26,0.2,0,0,11.13,13.27,0.2,102.226,3.318,3.318,3.316,100,0,0,0,167.7,158.5,158.6
"2022-07-02 00:33:00",3006437,3.188,157.5333,1.454532,0.05856052,3.31,0,1.302667,147.936,4.248242,0.1237991,1.53,0,-999,0,11.11,89,11.21,11.29,0.2,0,0,11.11,13.27,0.2,102.2311,3.317,3.318,3.316,100,0,0,0,167.7,158.6,158.6
"2022-07-02 00:34:00",3006438,3.003334,155.3333,0.6987291,0.03218002,3.04,0,1.209333,144.2002,5.739574,0.1662716,1.48,0,-999,0,11.15,89.1,11.26,11.33,0.2,0,0,11.11,13.26,0.2,102.2276,3.317,3.317,3.316,100,0,0,0,167.7,158.6,158.6
"2022-07-02 00:35:00",3006439,2.994,152.7999,1.275416,0.09112627,3.22,0,1.166667,137.1988,6.936761,0.1244544,1.35,0,-999,0,11.16,89.2,11.29,11.38,0.2,0,0,11.1,13.27,0.2,102.229,3.317,3.318,3.315,100,0,0,0,167.7,158.6,158.6
"2022-07-02 00:36:00",3006440,2.803334,151.933,2.293766,0.08219218,2.96,0,1.145333,142.9356,7.297172,0.1312436,1.41,0,-999,0,11.19,89.3,11.34,11.39,0.2,0,0,11.08,13.26,0.2,102.2283,3.316,3.317,3.316,100,0,0,0,167.7,158.5,158.6
"2022-07-02 00:37:00",3006441,2.842667,156.2005,1.9389,0.07758582,3.01,0,1.218,147.5282,5.081052,0.1269751,1.37,0,-999,0,11.19,89.2,11.3,11.39,0.2,0,0,11.08,13.27,0.2,102.2285,3.316,3.317,3.315,100,0,0,0,167.7,158.5,158.6
"2022-07-02 00:38:00",3006442,2.928667,152.9995,2.449355,0.09513965,3.12,0,1.228,142.7292,5.564028,0.1201222,1.37,0,-999,0,11.17,89.1,11.27,11.38,0.2,0,0,11.08,13.26,0.2,102.2341,3.318,3.318,3.316,100,0,0,0,167.7,158.5,158.6
"2022-07-02 00:39:00",3006443,3.022667,149.8665,1.543467,0.08053704,3.22,0,1.272667,139.1334,4.376856,0.1122775,1.45,0,-999,0,11.17,89.1,11.27,11.36,0.2,0,0,11.08,13.26,0.2,102.235,3.316,3.319,3.316,100,0,0,0,167.7,158.5,158.6
"2022-07-02 00:40:00",3006444,3.115334,147.8,1.107351,0.1167828,3.31,0,1.195333,134.339,5.206302,0.1348019,1.4,0,-999,0,11.17,89.1,11.27,11.36,0.2,0,0,11.07,13.27,0.2,102.2302,3.315,3.316,3.315,100,0,0,0,167.7,158.5,158.6
"2022-07-02 00:41:00",3006445,3.028666,147.5333,1.257644,0.05953891,3.12,0,1.189333,134.658,6.735746,0.1593515,1.46,0,-999,0,11.18,89.1,11.27,11.38,0.2,0,0,11.06,13.27,0.2,102.2384,3.315,3.316,3.315,100,0,0,0,167.7,158.5,158.6
"2022-07-02 00:42:00",3006446,2.965333,148,1.095624,0.07623354,3.16,0,1.276,138.4666,5.069769,0.2076471,1.59,0,-999,0,11.2,89.1,11.3,11.39,0.2,0,0,11.06,13.26,0.2,102.2388,3.316,3.316,3.314,100,0,0,0,167.7,158.6,158.5
"2022-07-02 00:43:00",3006447,2.871333,149.7997,1.972991,0.1438919,3.07,0,1.123333,146.3267,6.834378,0.1780886,1.44,0,-999,0,11.23,89.2,11.37,11.43,0.2,0,0,11.05,13.26,0.2,102.235,3.316,3.316,3.314,100,0,0,0,167.7,158.5,158.5
"2022-07-02 00:44:00",3006448,2.74,152.4005,3.381957,0.07211098,2.87,0,1.219333,149.9295,7.120949,0.1306122,1.52,0,-999,0,11.27,89.2,11.38,11.46,0.2,0,0,11.04,13.26,0.2,102.2423,3.316,3.317,3.316,100,0,0,0,167.7,158.6,158.5
"2022-07-02 00:45:00",3006449,2.591333,148.9989,2.448835,0.1554292,2.78,0,1.267334,139.8661,4.629721,0.1436415,1.6,0,-999,0,11.27,89.2,11.38,11.46,0.2,0,0,11.04,13.27,0.2,102.2409,3.316,3.316,3.315,100,0,0,0,167.7,158.5,158.5
"2022-07-02 00:46:00",3006450,2.632667,151.2666,2.488792,0.07424884,2.75,0,1.343333,145.4007,3.281823,0.1776388,1.73,0,-999,0,11.3,89.3,11.43,11.51,0.2,0,0,11.04,13.27,0.2,102.237,3.317,3.318,3.316,100,0,0,0,167.7,158.5,158.5
"2022-07-02 00:47:00",3006451,2.567333,152.6671,2.086647,0.07672174,2.71,0,1.332667,145.3969,4.643609,0.1396408,1.63,0,-999,0,11.32,89.3,11.45,11.55,0.2,0,0,11.04,13.26,0.2,102.2437,3.315,3.318,3.315,100,0,0,0,167.7,158.5,158.5
"2022-07-02 00:48:00",3006452,2.539333,152.5334,1.309791,0.07187643,2.65,0,1.203333,147.3993,3.77292,0.1031934,1.43,0,-999,0,11.35,89.3,11.49,11.55,0.2,0,0,11.04,13.27,0.2,102.2353,3.316,3.317,3.315,100,0,0,0,167.7,158.5,158.5
"2022-07-02 00:49:00",3006453,2.486667,151.8668,1.66807,0.03279562,2.57,0,1.15,145.5978,3.553738,0.1123091,1.31,0,-999,0,11.35,89.2,11.45,11.55,0.2,0,0,11.04,13.27,0.2,102.2415,3.316,3.317,3.316,100,0,0,0,167.7,158.5,158.5
"2022-07-02 00:50:00",3006454,2.554,152.5999,1.665427,0.07125541,2.67,0,1.042,146.8,6.153741,0.08533854,1.21,0,-999,0,11.33,89.1,11.42,11.53,0.2,0,0,11.04,13.27,0.2,102.2343,3.315,3.317,3.315,100,0,0,0,167.7,158.5,158.5
"2022-07-02 00:51:00",3006455,2.486,151.2,1.681165,0.08731549,2.7,0,1.153333,141.5911,7.212626,0.1599444,1.42,0,-999,0,11.31,89,11.39,11.47,0.2,0,0,11.02,13.27,0.2,102.2325,3.316,3.316,3.314,100,0,0,0,167.7,158.5,158.5
"2022-07-02 00:52:00",3006456,2.523333,150.9991,2.475808,0.07180218,2.64,0,1.09,142.8628,4.127178,0.1154701,1.32,0,-999,0,11.31,89,11.38,11.46,0.2,0,0,11.02,13.26,0.2,102.2315,3.316,3.317,3.316,100,0,0,0,167.7,158.5,158.5
"2022-07-02 00:53:00",3006457,2.594,152.0667,1.730858,0.1157468,2.81,0,1.138,140.401,3.554649,0.1446928,1.46,0,-999,0,11.31,89,11.39,11.46,0.2,0,0,11.02,13.27,0.2,102.2324,3.316,3.316,3.313,100,0,0,0,167.7,158.5,158.5
"2022-07-02 00:54:00",3006458,2.48,150.5333,1.784111,0.1070202,2.65,0,1.236,140.8677,3.072846,0.1310878,1.39,0,-999,0,11.31,89,11.4,11.47,0.2,0,0,11.02,13.26,0.2,102.2331,3.316,3.316,3.315,100,0,0,0,167.7,158.5,158.5
"2022-07-02 00:55:00",3006459,2.355334,149.9332,1.526249,0.05619808,2.51,0,1.241333,140.667,4.076208,0.1587815,1.48,0,-999,0,11.33,89,11.41,11.47,0.2,0,0,11.02,13.26,0.2,102.2212,3.316,3.316,3.315,100,0,0,0,167.7,158.5,158.5
"2022-07-02 00:56:00",3006460,2.372,150.2666,0.9980307,0.06554392,2.46,0,1.146667,146.2019,6.629094,0.1500074,1.38,0,-999,0,11.33,89,11.4,11.47,0.2,0,0,11.01,13.27,0.2,102.2106,3.315,3.315,3.314,100,0,0,0,167.7,158.5,158.5
"2022-07-02 00:57:00",3006461,2.370667,149.7333,1.435976,0.07987213,2.56,0,1.172667,144.7298,5.34525,0.1389228,1.41,0,-999,0,11.31,89,11.39,11.47,0.2,0,0,10.99,13.27,0.2,102.2166,3.316,3.316,3.315,100,0,0,0,167.7,158.5,158.5
"2022-07-02 00:58:00",3006462,2.300667,153.7995,2.006405,0.06223252,2.4,0,1.066,146.2654,3.748756,0.1534406,1.34,0,-999,0,11.31,88.9,11.39,11.47,0.2,0,0,10.99,13.26,0.2,102.2209,3.315,3.316,3.315,100,0,0,0,167.7,158.5,158.5
"2022-07-02 00:59:00",3006463,2.236,156.4665,1.783782,0.06570635,2.35,0,0.9060001,153.8604,5.766595,0.1149377,1.11,0,-999,0,11.29,88.9,11.38,11.45,0.2,0,0,10.99,13.27,0.2,102.2165,3.316,3.317,3.315,100,0,0,0,167.7,158.5,158.5
"2022-07-02 01:00:00",3006464,2.195333,157.3333,1.247173,0.1431953,2.42,0,0.8879999,152.0733,6.712987,0.06544209,1.02,0,-999,0,11.26,88.8,11.31,11.41,0.2,0,0,10.99,13.27,0.2,102.2092,3.316,3.316,3.315,100,0,0,0,167.7,158.5,158.5
"2022-07-02 01:01:00",3006465,2.226667,157.2664,2.048138,0.12202,2.51,0,0.8806667,149.1337,4.962241,0.1103006,1.06,0,-999,0,11.22,88.7,11.25,11.37,0.2,0,0,10.99,13.27,0.2,102.2119,3.316,3.317,3.316,100,0,0,0,167.7,158.5,158.5
"2022-07-02 01:02:00",3006466,2.322,158.2009,2.736634,0.1038717,2.48,0,0.8933333,152.13,5.325798,0.1224563,1.08,0,-999,0,11.2,88.6,11.21,11.32,0.2,0,0,10.99,13.27,0.2,102.22,3.316,3.317,3.315,100,0,0,0,167.7,158.5,158.5
"2022-07-02 01:03:00",3006467,2.422667,158.3999,1.959445,0.1149184,2.66,0,0.9820001,149.0625,4.680511,0.1304454,1.11,0,-999,0,11.17,88.5,11.15,11.27,0.2,0,0,10.99,13.27,0.2,102.2176,3.315,3.316,3.314,100,0,0,0,167.7,158.5,158.5
"2022-07-02 01:04:00",3006468,2.43,153.7341,2.694233,0.06418725,2.51,0,0.9393333,143.6651,4.864303,0.07037675,1.05,0,-999,0,11.14,88.5,11.11,11.23,0.2,0,0,10.99,13.26,0.2,102.2112,3.316,3.316,3.314,100,0,0,0,167.7,158.5,158.5
"2022-07-02 01:05:00",3006469,2.518667,153.5334,1.499397,0.09918781,2.72,0,0.8033333,143.0722,4.955477,0.1039658,0.97,0,-999,0,11.09,88.4,11.07,11.17,0.2,0,0,10.98,13.27,0.2,102.2167,3.314,3.316,3.313,100,0,0,0,167.7,158.5,158.5
"2022-07-02 01:06:00",3006470,2.51,154.2,1.326423,0.05378966,2.61,0,0.8113334,142.2625,4.750651,0.1322556,1.05,0,-999,0,11.05,88.5,11.08,11.15,0.2,0,0,10.97,13.27,0.2,102.2125,3.315,3.316,3.315,100,0,0,0,167.7,158.5,158.5
"2022-07-02 01:07:00",3006471,2.62,153.6001,1.404481,0.06418726,2.76,0,0.8913332,140.8035,5.278559,0.1536171,1.15,0,-999,0,11.07,88.7,11.12,11.17,0.2,0,0,10.97,13.26,0.2,102.2174,3.315,3.317,3.315,100,0,0,0,167.7,158.5,158.5
"2022-07-02 01:08:00",3006472,2.469333,154.2667,0.997344,0.05778883,2.62,0,0.9546666,135.734,6.879598,0.09265468,1.09,0,-999,0,11.09,88.8,11.15,11.22,0.2,0,0,10.96,13.27,0.2,102.2146,3.315,3.316,3.314,100,0,0,0,167.7,158.5,158.5
"2022-07-02 01:09:00",3006473,2.448666,152.8667,1.627435,0.09358537,2.65,0,0.8833333,137.9292,5.808412,0.1112155,1.08,0,-999,0,11.1,88.9,11.19,11.25,0.2,0,0,10.95,13.27,0.2,102.2175,3.314,3.315,3.314,100,0,0,0,167.7,158.5,158.5
"2022-07-02 01:10:00",3006474,2.575334,152.7334,0.9285477,0.03930509,2.65,0,1.034667,136.6749,5.626682,0.162926,1.24,0,-999,0,11.11,88.9,11.22,11.26,0.2,0,0,10.95,13.27,0.2,102.2196,3.316,3.316,3.314,100,0,0,0,167.7,158.5,158.5
"2022-07-02 01:11:00",3006475,2.585333,153.9332,2.293809,0.109901,2.81,0,0.9633334,133.799,5.367915,0.1142317,1.13,0,-999,0,11.12,89,11.24,11.28,0.2,0,0,10.94,13.26,0.2,102.2208,3.316,3.316,3.315,100,0,0,0,167.7,158.5,158.5
"2022-07-02 01:12:00",3006476,2.460667,155.1333,1.359726,0.09327138,2.58,0,1.004667,135.4683,5.618112,0.166728,1.28,0,-999,0,11.14,89,11.24,11.29,0.2,0,0,10.93,13.27,0.2,102.2172,3.314,3.316,3.314,100,0,0,0,167.7,158.5,158.5
"2022-07-02 01:13:00",3006477,2.385333,156.9333,1.18149,0.05499902,2.51,0,0.8713334,137.5861,7.467646,0.1194357,1.13,0,-999,0,11.14,89,11.24,11.3,0.2,0,0,10.93,13.27,0.2,102.222,3.315,3.315,3.314,100,0,0,0,167.7,158.5,158.5
"2022-07-02 01:14:00",3006478,2.489333,157.0666,1.610991,0.08605938,2.7,0,1.001333,135.4802,6.775729,0.1410374,1.24,0,-999,0,11.15,89,11.24,11.3,0.2,0,0,10.91,13.26,0.2,102.217,3.315,3.316,3.315,100,0,0,0,167.7,158.5,158.5
"2022-07-02 01:15:00",3006479,2.397333,159.7333,1.878419,0.07433858,2.57,0,0.9639999,143.9785,7.587379,0.1430524,1.15,0,-999,0,11.15,89,11.24,11.32,0.2,0,0,10.9,13.27,0.2,102.2103,3.314,3.316,3.314,100,0,0,0,167.7,158.5,158.5
"2022-07-02 01:16:00",3006480,2.283333,158.2666,1.062431,0.09644804,2.45,0,0.9806667,144.064,5.775869,0.1103006,1.22,0,-999,0,11.15,88.9,11.22,11.29,0.2,0,0,10.9,13.27,0.2,102.2134,3.314,3.316,3.314,100,0,0,0,167.7,158.5,158.5
"2022-07-02 01:17:00",3006481,2.284667,158.8002,1.973189,0.07401498,2.4,0,0.8079999,147.7338,5.992108,0.1119047,1.04,0,-999,0,11.11,88.8,11.16,11.27,0.2,0,0,10.9,13.26,0.2,102.2183,3.315,3.316,3.315,100,0,0,0,167.7,158.5,158.5
"2022-07-02 01:18:00",3006482,2.284667,160.7334,1.18149,0.08800504,2.49,0,0.7433332,155.3375,5.982536,0.1203698,0.94,0,-999,0,11.08,88.7,11.11,11.21,0.2,0,0,10.89,13.27,0.2,102.2226,3.314,3.315,3.313,100,0,0,0,167.7,158.5,158.5
"2022-07-02 01:19:00",3006483,2.154667,160.0667,0.8541161,0.06591581,2.27,0,0.6286667,154.4427,8.756058,0.07718952,0.76,0,-999,0,11.05,88.5,11.05,11.15,0.2,0,0,10.88,13.27,0.2,102.215,3.313,3.314,3.313,100,0,0,0,167.7,158.5,158.5
"2022-07-02 01:20:00",3006484,2.086,159.0666,0.9285477,0.04687576,2.18,0,0.536,160.8743,7.740658,0.1080617,0.73,0,-999,0,10.99,88.3,10.97,11.08,0.2,0,0,10.87,13.27,0.2,102.2124,3.314,3.314,3.312,100,0,0,0,167.7,158.5,158.5
"2022-07-02 01:21:00",3006485,2.116,157.9999,1.211023,0.08325065,2.25,0,0.5393333,155.471,5.236917,0.06647971,0.64,0,-999,0,10.93,88.2,10.92,11.01,0.2,0,0,10.86,13.27,0.2,102.206,3.315,3.315,3.314,100,0,0,0,167.7,158.5,158.5
"2022-07-02 01:22:00",3006486,2.138,158,0.8166339,0.03581438,2.19,0,0.7906667,151.667,4.157193,0.1107229,0.97,0,-999,0,10.9,88.1,10.84,10.94,0.2,0,0,10.86,13.26,0.2,102.2129,3.313,3.314,3.313,100,0,0,0,167.7,158.5,158.5
"2022-07-02 01:23:00",3006487,2.186667,158.9333,0.8536577,0.03571493,2.24,0,0.8253334,162.5994,3.09326,0.05631656,0.9,0,-999,0,10.85,88,10.8,10.89,0.2,0,0,10.85,13.27,0.2,102.2087,3.314,3.315,3.312,100,0,0,0,167.7,158.5,158.5
"2022-07-02 01:24:00",3006488,2.052,154.5333,1.746063,0.02970968,2.12,0,0.7799999,162.2472,5.934285,0.04560702,0.86,0,-999,0,10.8,87.9,10.78,10.85,0.2,0,0,10.83,13.26,0.2,102.2069,3.314,3.315,3.313,100,0,0,0,167.7,158.5,158.5
"2022-07-02 01:25:00",3006489,2.086667,157.8667,1.257955,0.04330768,2.2,0,0.7493333,175.3386,5.000162,0.0862142,0.86,0,-999,0,10.78,88,10.76,10.83,0.2,0,0,10.82,13.26,0.2,102.2071,3.314,3.315,3.313,100,0,0,0,167.7,158.5,158.5
"2022-07-02 01:26:00",3006490,2.115333,156.8,0.9091658,0.03879295,2.18,0,0.6619999,175.3233,5.821517,0.09346657,0.95,0,-999,0,10.76,88.1,10.76,10.82,0.2,0,0,10.81,13.27,0.2,102.2139,3.313,3.315,3.313,100,0,0,0,167.7,158.5,158.5
"2022-07-02 01:27:00",3006491,2.238,156.6,1.496588,0.04019946,2.31,0,0.7640001,163.398,5.120833,0.07787169,0.91,0,-999,0,10.75,88.2,10.76,10.82,0.2,0,0,10.81,13.26,0.2,102.209,3.313,3.315,3.312,100,0,0,0,167.7,158.5,158.5
"2022-07-02 01:28:00",3006492,2.222667,155.4002,1.582917,0.05458528,2.34,0,0.6693334,171.0605,7.3042,0.07028197,0.81,0,-999,0,10.72,88.3,10.75,10.82,0.2,0,0,10.79,13.27,0.2,102.2121,3.314,3.314,3.312,100,0,0,0,167.7,158.5,158.5
"2022-07-02 01:29:00",3006493,1.962,157.8652,2.577854,0.1487817,2.22,0,0.5573333,183.9593,18.07385,0.07343629,0.64,0,-999,0,10.71,88.5,10.76,10.82,0.2,0,0,10.78,13.27,0.2,102.22,3.312,3.314,3.312,100,0,0,0,167.7,158.5,158.5
"2022-07-02 01:30:00",3006494,1.576,166.199,3.505825,0.1154585,1.8,0,0.6300001,237.3591,7.830748,0.06418723,0.74,0,-999,0,10.7,88.6,10.77,10.82,0.2,0,0,10.77,13.26,0.2,102.211,3.312,3.313,3.312,100,0,0,0,167.7,158.5,158.5
"2022-07-02 01:31:00",3006495,1.538667,166.1366,3.240386,0.1083738,1.72,0,0.5946667,235.1609,7.632261,0.08180191,0.72,0,-999,0,10.7,88.8,10.81,10.84,0.2,0,0,10.74,13.27,0.2,102.2183,3.313,3.314,3.311,100,0,0,0,167.7,158.5,158.5
"2022-07-02 01:32:00",3006496,1.742,165.3301,3.891377,0.1688866,2.03,0,0.622,220.7296,5.527468,0.08117471,0.73,0,-999,0,10.74,89.1,10.89,10.91,0.2,0,0,10.72,13.26,0.2,102.2127,3.314,3.314,3.312,100,0,0,0,167.7,158.5,158.5
"2022-07-02 01:33:00",3006497,1.654667,164.7337,8.459761,0.2655527,1.99,0,0.7180001,181.1391,11.25468,0.1307007,0.93,0,-999,0,10.78,89.3,10.96,10.99,0.2,0,0,10.7,13.26,0.2,102.2118,3.312,3.314,3.312,100,0,0,0,167.7,158.5,158.5
"2022-07-02 01:34:00",3006498,2.074667,159.5341,4.527362,0.2437995,2.34,0,0.8726667,168.6634,5.348141,0.05482903,0.97,0,-999,0,10.81,89.4,10.93,11.01,0.2,0,0,10.7,13.27,0.2,102.2085,3.314,3.315,3.312,100,0,0,0,167.7,158.5,158.5
"2022-07-02 01:35:00",3006499,2.254,163.4665,1.74595,0.0654013,2.34,0,0.8853333,164.5949,4.865677,0.05512007,0.97,0,-999,0,10.82,89.5,10.94,11.03,0.2,0,0,10.69,13.26,0.2,102.2064,3.313,3.314,3.312,100,0,0,0,167.7,158.5,158.5
"2022-07-02 01:36:00",3006500,2.087333,160.8661,3.242414,0.05543363,2.23,0,0.8253334,156.2242,9.843598,0.05136362,0.92,0,-999,0,10.82,89.5,10.94,11.03,0.2,0,0,10.67,13.26,0.2,102.2102,3.313,3.314,3.312,100,0,0,0,167.7,158.5,158.5
"2022-07-02 01:37:00",3006501,2.004,159.667,2.356865,0.02961979,2.05,0,0.8726667,145.7329,2.976525,0.04972815,0.95,0,-999,0,10.82,89.5,10.9,10.97,0.2,0,0,10.66,13.26,0.2,102.2045,3.312,3.313,3.311,100,0,0,0,167.7,158.5,158.5
"2022-07-02 01:38:00",3006502,2.006667,157.2666,1.181242,0.04880797,2.11,0,0.8666667,143.8003,2.226599,0.05159673,1,0,-999,0,10.8,89.6,10.92,10.97,0.2,0,0,10.65,13.26,0.2,102.2132,3.312,3.314,3.312,100,0,0,0,167.7,158.5,158.5
"2022-07-02 01:39:00",3006503,2.002666,158.6002,2.627918,0.04781443,2.11,0,0.81,144.9956,4.729742,0.1150652,1.04,0,-999,0,10.81,89.6,10.94,11.01,0.2,0,0,10.65,13.26,0.2,102.2101,3.313,3.313,3.312,100,0,0,0,167.7,158.5,158.5
"2022-07-02 01:40:00",3006504,2.01,161.6,0.4901931,0.04647577,2.1,0,0.9973333,148.2674,2.619291,0.09916091,1.15,0,-999,0,10.81,89.7,10.94,11.03,0.2,0,0,10.63,13.26,0.2,102.2026,3.312,3.314,3.312,100,0,0,0,167.7,158.5,158.5
"2022-07-02 01:41:00",3006505,2.08,161.5331,1.627375,0.06110103,2.16,0,1.176667,152.932,3.394809,0.05617434,1.32,0,-999,0,10.81,89.7,10.93,11,0.2,0,0,10.61,13.26,0.2,102.2029,3.312,3.312,3.312,100,0,0,0,167.7,158.5,158.5
"2022-07-02 01:42:00",3006506,2.059333,163.4001,1.143182,0.07818499,2.2,0,1.17,157.2005,2.508162,0.07745967,1.27,0,-999,0,10.82,89.8,10.95,11.03,0.2,0,0,10.61,13.27,0.2,102.2085,3.312,3.314,3.312,100,0,0,0,167.7,158.5,158.5
"2022-07-02 01:43:00",3006507,1.938667,161.4005,1.959345,0.09294201,2.1,0,1.132666,157.4007,3.26123,0.08827733,1.34,0,-999,0,10.84,89.8,10.96,11.05,0.2,0,0,10.61,13.26,0.2,102.2089,3.312,3.315,3.312,100,0,0,0,167.7,158.5,158.5
"2022-07-02 01:44:00",3006508,2.072,162.4667,1.203728,0.1180509,2.24,0,1.104667,162.4662,3.073548,0.08747317,1.26,0,-999,0,10.84,89.8,10.95,11.05,0.2,0,0,10.6,13.26,0.2,102.2101,3.312,3.314,3.312,100,0,0,0,167.7,158.5,158.5
"2022-07-02 01:45:00",3006509,2.220667,161.8,1.832993,0.05065788,2.3,0,0.8979999,165.0667,3.713513,0.08945762,1.1,0,-999,0,10.83,89.8,10.94,11.03,0.2,0,0,10.58,13.26,0.2,102.2132,3.313,3.314,3.312,100,0,0,0,167.7,158.5,158.5
"2022-07-02 01:46:00",3006510,2.281333,160.3999,0.9524774,0.04455204,2.37,0,0.7913333,166.4053,5.335053,0.08958174,0.91,0,-999,0,10.81,89.7,10.86,10.98,0.2,0,0,10.58,13.26,0.2,102.2114,3.312,3.313,3.312,100,0,0,0,167.7,158.5,158.5